"Pseudo-MPEC" for ZTF03hI

Created 2019 Jun 15 19:10:22 UT using Find_Orb

Click here for an explanation of pseudo-MPECs

 
 Astrometry: 
     ZTF03hI  C2019 03 18.39368 15 47 32.96 +02 52 59.4    ~6CEq 20.6 GVNEOCPG96
     ZTF03hI  C2019 03 18.39878 15 47 33.17 +02 53 02.4    ~6CEq 20.9 GVNEOCPG96
     ZTF03hI  C2019 03 18.40389 15 47 33.40 +02 53 05.3    ~6CEq 21.0 GVNEOCPG96
     ZTF03hI  C2019 03 18.40899 15 47 33.59 +02 53 08.5    ~6CEq 20.0 GVNEOCPG96
     ZTF03hI  C2019 04 04NuUNf)h*XcsG)r`o/1\qS:_$:?GC:VwBCe'9gj2is*OC`8TC/a7FF51
     ZTF03hI  C2019 04 04o@?==Zs;pAgwZ/hGRa+'*ls9i]Zc!P]@G!TtpWEkxBad'92tdXn#F51
     ZTF03hI  C2019 04 04GQX\nYAstrometry2Qy3,T-VeRH=O(%9/sA9^aredacted;a!l?]F51
     ZTF03hI  C2019 04 04`RIk,\R`D.%P0v%8!s!tlCg*wNlRtej4r9%$P1dNtC$*?^wuWxo#F51
     ZTF03hI  C2019 04 14.25915 15 57 28.12 +08 04 45.7    ~6CEq 19.8 GVNEOCPG96
     ZTF03hI  C2019 04 14.26386 15 57 28.13 +08 04 49.6    ~6CEq 19.8 GVNEOCPG96
     ZTF03hI  C2019 04 14.26856 15 57 28.11 +08 04 53.1    ~6CEq 19.9 GVNEOCPG96
     ZTF03hI  C2019 04 14.27328 15 57 28.09 +08 04 56.4    ~6CEq 20.0 GVNEOCPG96
     ZTF03hI  C2019 04 26.41983 15 55 30.82 +10 26 15.3    ~6CEq 20.0 GVNEOCP703
     ZTF03hI  C2019 04 26.42511 15 55 30.74 +10 26 18.3    ~6CEq 19.6 GVNEOCP703
     ZTF03hI  C2019 04 26.43037 15 55 30.62 +10 26 21.4    ~6CEq 19.3 GVNEOCP703
     ZTF03hI  C2019 04 26.43565 15 55 30.39 +10 26 25.8    ~6CEq 19.1 GVNEOCP703
     ZTF03hI  C2019 04 29u6.LT%8sILk+oF=3t70yu*]r%nKNKd3M(g,t;U`K+VrClmTEi^(;069
     ZTF03hI  C2019 04 29=P@kA/5HkWTerceXhJh`M2-@@RcX5YueyfgtO#B@ZP+,9J\t-BGs069
     ZTF03hI  C2019 04 29OBm\_KqF\f$l;[55oe@!YDs;7@SAbF#!qN@qd87h*RI?A_;sr_mg069
     ZTF03hI  C2019 04 30$M$x'yclick:MV;y*[pos.7$:;w\Y6w-.7u;'Tm.S-60Hin*9=WG069
     ZTF03hI  C2019 04 30U5JgR)#)jf@D;5Lo(4#5Jg895BSSSTbiJ20Vog``SZ*oJ0REABIb069
     ZTF03hI  C2019 04 30Z=xVJQcXm,)%_N*y4]4s,^]Kj(FfR/FI-Vs^@Q+LZ0Ct^MMMd;qy069
     ZTF03hI  C2019 05 02]vDfB0rQ1A8g:PaE[hZk1.*8[WQWM*:#NZF_RQJMD7AthereSgVAF51
     ZTF03hI  C2019 05 02G!R/+jDFuMthQTwm/)=\M/XGbEW)FY5Ud%y'%OTSUv+cS\WbeNxlF51
     ZTF03hI  C2019 05 027VnyUK\U*q0IPd*V98/H5:1BQB*K(cb_Wbn\DJAp4jFxNVkf@9U4F51
     ZTF03hI  C2019 05 04.36464 15 52 17.03 +11 45 33.2    ~6C67 19.9 GVNEOCP703
     ZTF03hI  C2019 05 04.36987 15 52 16.80 +11 45 35.6    ~6C67 20.4 GVNEOCP703
     ZTF03hI  C2019 05 04.37510 15 52 16.67 +11 45 39.3    ~6C67 19.2 GVNEOCP703
     ZTF03hI  C2019 05 04.38032 15 52 16.43 +11 45 40.8    ~6C67 19.4 GVNEOCP703
     ZTF03hI  C2019 05 08.44711215 50 08.75 +12 19 50.1    ~6C67 19.56cVNEOCPT05
     ZTF03hI  C2019 05 08.44960715 50 08.65 +12 19 51.0    ~6C67 19.48cVNEOCPT05
     ZTF03hI  C2019 05 08.45880215 50 08.31 +12 19 55.5    ~6C67 19.54cVNEOCPT05
     ZTF03hI  C2019 05 08.47715215 50 07.63 +12 20 03.9    ~6C67 19.36cVNEOCPT05
     ZTF03hI  C2019 05 09.35863 15 49 37.88 +12 26 44.4    ~6C67 19.4 GVNEOCPG96
     ZTF03hI  C2019 05 09.36431 15 49 37.68 +12 26 46.8    ~6C67 19.4 GVNEOCPG96
     ZTF03hI  C2019 05 09.36998 15 49 37.46 +12 26 49.3    ~6C67 19.4 GVNEOCPG96
     ZTF03hI  C2019 05 09.37564 15 49 37.25 +12 26 51.9    ~6C67 19.5 GVNEOCPG96
     ZTF03hI  C2019 05 27%we!'(LdE5#Vwq8uAYkV#l.QHhmM#LKhN,Jpo5sKfk2QaBUSQ`+XF52
     ZTF03hI  C2019 05 30Dx,!%1jS=n-4CaCc,a%smg;HtlbPwAuPMvU8@.Ui;C-8_*VkF5d9F51
     ZTF03hI  C2019 05 30;QL#'JDKS/cMqsf#%!.5mTJ1m'7.Xd1_h0B[oQyBHr94hmjJ\7$-F51
     ZTF03hI  C2019 05 30Hq4:YF$E+lUG4jp?C9g;RU^n#Ns_?wlgIZ[\_'f+63s'*8Jw%@)5F51
     ZTF03hI  C2019 05 30$Q8,JQ%xF%X(a9giYs%lF`P_e'+dScEI@QNBOtGacjRY=1=r07lAF51
     ZTF03hI  C2019 05 31.31653 15 35 55.71 +13 36 27.8    ~6C67 19.3 GVNEOCPG96
     ZTF03hI  C2019 05 31.32216 15 35 55.50 +13 36 27.4    ~6C67 19.5 GVNEOCPG96
     ZTF03hI  C2019 05 31.32776 15 35 55.27 +13 36 26.8    ~6C67 19.4 GVNEOCPG96
     ZTF03hI  C2019 05 31.33335 15 35 55.07 +13 36 26.3    ~6C67 19.5 GVNEOCPG96
     ZTF03hI  C2019 06 08BVN_rN.m%6iT0k;3TpW`)NqckCNnZ@iVvq;IE#J9+X$PN7*DHj'PF52
     ZTF03hI  C2019 06 10.20987015 30 54.75 +13 00 54.5    ~6BI7 19.66gUNEOCPI41
     ZTF03hI  C2019 06 10.23193115 30 54.15 +13 00 47.3    ~6BI7 19.33iUNEOCPI41
     ZTF03hI  C2019 06 11.25360015 30 29.50 +12 54 47.6    ~6BI7 19.27iUNEOCPI41
     ZTF03hI  C2019 06 11.27075015 30 29.06 +12 54 41.0    ~6BI7 19.18iUNEOCPI41
     ZTF03hI KC2019 06 11kA_sit92Pi*F8O#.Tqn2uD:fO^4s@d5e_O^)Iw;S@ySY)WA]N5I#K88
     ZTF03hI KC2019 06 114di=W6Bu-ZUEcXvY1=XePavqx$a'O@plB'\?b6qLTOH3;?Eo-VA_K88
     ZTF03hI KC2019 06 11Z\aa1'1W$89CnVI*MO^WRKrqqRg$.b=BD%)U`nfd`%-T518c`Qt8K88
     ZTF03hI HC2019 06 12FdsxQQ`mo(7NeF432yMk`['qsj2J$MdhsRfG^Wu##cjforib=[#x691
     ZTF03hI HC2019 06 12btKR`PJe#4-WP[/,!0jY_G6I7e.ah,I=1U#a%B9*vCe_Ofpsy/@6691
     ZTF03hI HC2019 06 12X1x?#f%L)j'aR`]pSgFv,,KMVDLebD)$vH[b'-Fqha#(DN[ftWr\691
     ZTF03hI KC2019 06 13y6Lx4'mv)N^06^\XE_aD3v0bT\B6\Yqb[oP5QC1ZLIE.[N-tiQbf691
     ZTF03hI KC2019 06 13aJtxld4K[v`+Lu\J,pP0;lvtKq#Y*]XpOB*UXoc-kyWQo-;1SYa'691
     ZTF03hI KC2019 06 13_2EE)4(a+explanation2^5gp6%#[$4gMA(^NU!2UqX^+:F6L^mv691

Station data:
(069) Baldone  (N56.773119 E24.404200)  Latvia. 0.8-m Schmidt.
(691) Steward Observatory, Kitt Peak - Spacewatch  (N31.962174 W111.600327)
   US/Arizona.  Observer J. V. Scotti. 0.9-m f/3 reflector + CCD.
(703) Catalina Sky Survey  (N32.417006 W110.732640)  US/Arizona.  Observers
   T. A. Pruyne, B. M. Africano, E. J. Christensen, G. A. Farneth, D. C.
   Fuls, A. R. Gibbs, A. D. Grauer, H. Groeller, J. A. Johnson, R. A.
   Kowalski, S. M. Larson, G. J. Leonard, R. L. Seaman, F. C. Shelly. 0.68 m
   Schmidt + 10K CCD.
(F51) Pan-STARRS 1, Haleakala  (N20.707235 W156.255910)  US/Hawaii.
   Observers N. Primak, A. Schultz, S. Watters, J. Thiel, T. Goggia. Measurer
   PS1 Science Consortium. 1.8-m Ritchey-Chrétien + CCD.
(F52) Pan-STARRS 2, Haleakala  (N20.707384 W156.255910)  US/Hawaii. 1.8-m
   Ritchey-Chrétien + CCD.
(G96) Mt. Lemmon Survey  (N32.442754 W110.788720)  US/Arizona.  Observers T.
   A. Pruyne, B. M. Africano, E. J. Christensen, G. A. Farneth, D. C. Fuls,
   A. R. Gibbs, A. D. Grauer, H. Groeller, J. A. Johnson, R. A. Kowalski, S.
   M. Larson, G. J. Leonard, R. L. Seaman, F. C. Shelly. 1.5-m reflector +
   10K CCD.
(I41) Palomar Mountain--ZTF  (N33.357340 W116.859780)  US/California. 1.2-m
   f/2.44 Oschin Schmidt + CCD.
(K88) GINOP-KHK, Piszkéstető  (N47.917622 E19.893600)  Hungary.  Observer K.
   Sárneczky. 0.60-m Schmidt + CCD.
(T05) ATLAS-HKO, Haleakala  (N20.707573 W156.257010)  US/Hawaii.  Observers
   L. Denneau, A. Heinze, H. Weiland, J. Tonry, H. Flewelling, A.
   Fitzsimmons, D. Young, B. Stalder. Measurers L. Denneau, A. Heinze, J.
   Tonry. 0.5-m f/2.0 Schmidt + CCD.

Orbital elements:  ZTF03hI
   Perihelion 2019 Aug 18.173116 +/- 0.00486 TT =  4:09:17 (JD 2458713.673116)
Epoch 2019 Jun 13.0 TT = JDT 2458647.5                        AutoNEOCP
M 348.84715804 +/- 0.0006           (J2000 ecliptic)
n   0.16854037 +/- 3.93e-6          Peri.  122.10680 +/- 0.0034
a   3.24588707 +/- 5.05e-5          Node   149.07818 +/- 0.0008
e   0.3963173 +/- 1.41e-5           Incl.   17.30216 +/- 0.00012
P   5.85                   H 16.8   G  0.15   U  4.4  
q 1.95948585 +/- 2.94e-5    Q 4.53228829 +/- 0.00011
From 60 observations 2019 Mar. 18-June 13; mean residual 0".30
Residuals in arcseconds: 
190318 G96  .19+  .33+    190430 069  .16+  .31+    190530 F51  .04+  .30+    
190318 G96  .21+  .20+    190430 069  .53+  .03-    190530 F51  .08+  .26+    
190318 G96  .53+  .03-    190502 F51  .13+  .06+    190531 G96  .18+  .15+    
190318 G96  .25+  .04+    190502 F51  .16+  .05+    190531 G96  .22+  .27+    
190404 F51  .07-  .09-    190502 F51  .18+  .05+    190531 G96  .05-  .18+    
190404 F51  .06-  .15-    190504 703  .34+  .11-    190531 G96  .11+  .19+    
190404 F51  .17-  .09-    190504 703  .58-  .53-    190608 F52  .08-  .11-    
190404 F51  .10-  .15-    190504 703  .04-  .35+    190610 I41  .14-  .27-    
190414 G96  .13-  .60-    190504 703  1.1-  .96-    190610 I41  .08-  .02-    
190414 G96  .10+  .15-    190508 T05  .02-  .26+    190611 I41  .25-  .31-    
190414 G96  .10-  .10-    190508 T05  .16-  .00     190611 I41  .16-  .66-    
190414 G96  .31-  .26-    190508 T05  .24-  .22+    190611 K88  .24+  .11-    
190426 703  .23-  .13+    190508 T05  .42-  .09+    190611 K88  .08-  .19+    
190426 703  .27+  .29-    190509 G96  .15+  .31+    190611 K88  .32+  .10-    
190426 703  .16+  .60-    190509 G96  .29+  .18+    190612 691  .04-  .09+    
190426 703  1.6-  .38+    190509 G96  .12+  .15+    190612 691  .15-  .28-    
190429 069  .34+  .34+    190509 G96  .09+  .23+    190612 691  .03+  .05-    
190429 069  .30+  .01-    190527 F52  .03+  .33+    190613 691  .14+  .00     
190429 069  .23+  .02-    190530 F51  .04+  .27+    190613 691  .11+  .26-    
190430 069  .16+  .23+    190530 F51  .03+  .23+    190613 691  .23+  .13-    

Ephemerides (geocentric):
Date (UTC) HH   RA              Dec         delta   r     elong  mag " sig PA
---- -- -- --  -------------   -----------  ------ ------ -----  --- ---- ---
2019 06 15 19  15 28 58.178   +12 23 23.64  1.1854 2.0192 132.9 19.8 .060  36
2019 06 15 20  15 28 57.480   +12 23 04.19  1.1855 2.0191 132.9 19.8 .061  36
2019 06 15 21  15 28 56.785   +12 22 44.71  1.1857 2.0190 132.9 19.8 .061  36
2019 06 15 22  15 28 56.092   +12 22 25.19  1.1858 2.0189 132.8 19.8 .061  36
2019 06 15 23  15 28 55.402   +12 22 05.63  1.1859 2.0188 132.8 19.8 .062  36
2019 06 16 00  15 28 54.715   +12 21 46.04  1.1861 2.0188 132.8 19.8 .062  35
2019 06 16 01  15 28 54.030   +12 21 26.41  1.1862 2.0187 132.8 19.8 .062  35
2019 06 16 02  15 28 53.349   +12 21 06.74  1.1863 2.0186 132.7 19.8 .062  35
2019 06 16 03  15 28 52.669   +12 20 47.03  1.1865 2.0185 132.7 19.8 .063  35
2019 06 16 04  15 28 51.993   +12 20 27.29  1.1866 2.0185 132.7 19.8 .063  35
2019 06 16 05  15 28 51.319   +12 20 07.51  1.1868 2.0184 132.7 19.8 .063  35
2019 06 16 06  15 28 50.647   +12 19 47.69  1.1869 2.0183 132.6 19.8 .064  35
